Flag for Central African Republic Weather past 2 weeks in Bimbo, Central African Republic

Now
72 °F

Clear.


Feels Like: 65 °F
Forecast: 71 / 87 °F
Wind: No wind

Location: Bangui Airport

Current Time: Jul 25, 2014 at 10:41:59 PM

Latest Report: Jul 25, 2014 at 9:00 PM


Visibility: 10 mi

Pressure: 29.95 "Hg

Humidity: 100%

Dew point: 72 °F

Location of BimboLocation

Historic Weather in Bimbo — Graph

°F

Bimbo temperature yesterday

Maximum temperature yesterday: 84 °F (at 4:00 PM)
Minimum temperature yesterday: 72 °F (at 1:00 AM)
Average temperature yesterday: 76 °F

Past Weeks' High & Low Weather Summary

 TemperatureHumidityPressure
High95 °F (Jul 14, 2:00 PM)100% (Jul 11, 2:00 AM)30.07 "Hg (Jul 11, 2:00 AM)
Low70 °F (Jul 25, 2:00 AM)49% (Jul 14, 3:00 PM)29.77 "Hg (Jul 14, 5:00 PM)
Average78 °F86%29.94 "Hg
* Reported Jul 10 9:00 PM — Jul 25 9:00 PM, Bimbo, Weather by CustomWeather, © 2014

Note: Actual official high and low records may vary slightly from our data, if they occured in-between our weather recording intervals... More about our weather records

Advertising

Bimbo weather history for previous 24 hours

 ConditionsComfort  
Time TempWeatherWind HumidityBarometerVisibility
9:00 PM
Jul 25
72 °FClear.No wind100%29.95 "Hg10 mi
8:00 PM72 °FClear.No wind100%29.95 "Hg10 mi
5:00 PM75 °FOvercast.2 mph89%29.89 "HgN/A
4:00 PM75 °FOvercast.2 mph89%29.89 "HgN/A
2:00 PM72 °FLight rain. More clouds than sun.6 mph100%29.95 "HgN/A
1:00 PM73 °FPartly sunny.10 mph89%29.98 "HgN/A
12:00 PM75 °FPartly sunny.7 mph94%30.01 "HgN/A
11:00 AM75 °FPartly sunny.5 mph94%30.01 "HgN/A
10:00 AM75 °FMore clouds than sun.2 mph89%30.01 "Hg4 mi
9:00 AM73 °FMore clouds than sun.No wind94%30.01 "Hg4 mi
8:00 AM72 °FBroken clouds.No wind94%29.98 "Hg4 mi
7:00 AM70 °FLight rain. More clouds than sun.5 mph100%29.98 "Hg4 mi
6:00 AM70 °FLight rain. More clouds than sun.2 mph100%29.98 "Hg4 mi
5:00 AM70 °FMostly cloudy.No wind100%29.95 "Hg4 mi
4:00 AM70 °FMostly cloudy.46 mph100%29.95 "Hg4 mi
3:00 AM70 °FThunderstorms. Mostly cloudy.8 mph94%29.95 "Hg2 mi
2:00 AM70 °FLight rain. Mostly cloudy.12 mph100%29.98 "Hg4 mi
1:00 AM72 °FClear.5 mph94%29.98 "Hg10 mi
12:00 AM72 °FClear.1 mph100%29.98 "Hg10 mi
11:00 PM
Jul 24
73 °FClear.2 mph89%29.98 "Hg5 mi
10:00 PM73 °FPassing clouds.2 mph89%29.98 "Hg4 mi
Weather by CustomWeather, © 2014

See weather overviewHow to use our weather pages